Location: Newark
(25.4800°N, 85.7200°E)
Time: 09:53:49
(UTC+00:00)

A-11 Canister half - Visible Passes

Search period start: 21 August 2019 00:00
Search period end: 31 August 2019 00:00
Orbit: 1526 x 1683 km, 47.3° (Epoch: 21 August)

Date Brightness Start Highest point End Pass type
(mag) Time Alt. Az. Time Alt. Az. Time Alt. Az.
21 Aug 9.1 13:28:24 10° NW 13:38:34 87° NE 13:47:34 13° SE visible
21 Aug 10.5 15:35:43 10° WNW 15:42:51 23° SW 15:45:54 19° SSW visible
22 Aug 9.2 13:06:43 10° NW 13:16:54 83° NE 13:26:48 10° SE visible
22 Aug 10.5 15:13:47 10° WNW 15:21:15 24° SW 15:25:55 17° SSW visible
23 Aug 10.5 14:51:51 10° WNW 14:59:40 26° SW 15:06:00 14° S visible
24 Aug 10.5 14:29:58 10° WNW 14:38:05 28° SW 14:46:01 10° S visible
25 Aug 10.5 14:08:07 10° WNW 14:16:28 31° SW 14:24:40 10° S visible
26 Aug 10.4 13:46:16 10° WNW 13:54:52 33° SW 14:03:19 10° S visible
27 Aug 10.4 13:24:27 10° WNW 13:33:16 35° SW 13:41:55 10° S visible
28 Aug 10.4 13:02:39 10° WNW 13:11:40 38° SW 13:20:30 10° S visible
